This is the latest recevied weather packets stored in our database for station/object OM2RC-6. If no packets are shown the sender has not sent any weather packets the latest 10 day(s).
| Time | Temp. | Humidity | Pressure | Rain* | Wind** | Luminosity | Snow |
|---|---|---|---|---|---|---|---|
| 1778140142 | 18.33° C | 87% | 1013.6 hPa | - | - | - | - |
| 1778139842 | 17.78° C | 89% | 1013.8 hPa | - | - | - | - |
| 1778139540 | 17.78° C | 92% | 1013.7 hPa | - | - | - | - |
| 1778139238 | 17.22° C | 97% | 1013.6 hPa | - | - | - | - |
| 1778138938 | 16.11° C | 98% | 1013.6 hPa | - | - | - | - |
| 1778138636 | 15.56° C | 100% | 1013.7 hPa | - | - | - | - |
| 1778138335 | 15.56° C | 100% | 1013.7 hPa | - | - | - | - |
| 1778138034 | 15.56° C | 100% | 1013.8 hPa | - | - | - | - |
| 1778137733 | 15° C | 100% | 1013.7 hPa | - | - | - | - |
| 1778137131 | 14.44° C | 100% | 1013.6 hPa | - | - | - | - |
| 1778136829 | 15° C | 100% | 1013.6 hPa | - | - | - | - |
| 1778136528 | 14.44° C | 100% | 1013.5 hPa | - | - | - | - |
| 1778136227 | 14.44° C | 100% | 1013.5 hPa | - | - | - | - |
| 1778135926 | 14.44° C | 100% | 1013.5 hPa | - | - | - | - |
| 1778135622 | 13.89° C | 100% | 1013.5 hPa | - | - | - | - |
| 1778135320 | 13.89° C | 100% | 1013.4 hPa | - | - | - | - |
| 1778135019 | 13.89° C | 100% | 1013.4 hPa | - | - | - | - |
| 1778134717 | 13.89° C | 100% | 1013.4 hPa | - | - | - | - |
| 1778134114 | 13.89° C | 100% | 1013.3 hPa | - | - | - | - |
| 1778133813 | 13.89° C | 100% | 1013.2 hPa | - | - | - | - |
| 1778133512 | 13.89° C | 100% | 1013.1 hPa | - | - | - | - |
| 1778133211 | 13.33° C | 100% | 1013 hPa | - | - | - | - |
| 1778132910 | 13.33° C | 100% | 1013 hPa | - | - | - | - |
| 1778132609 | 13.33° C | 100% | 1012.9 hPa | - | - | - | - |
| 1778132307 | 13.33° C | 100% | 1012.9 hPa | - | - | - | - |
* Rain since midnight (hover to see other rain measurements)
** Current wind speed in m/s (hover to see current wind gust speed)